Doha, Qatar

4:27 AM +03 on July 26, 2017 (GMT +0300)
Doha

Weather History for 41170 - April, 2013

Change the Weather History Date:

Saturday, April 6, 2013

  Actual Average Record
Temperature  
Mean Temperature 80 °F -  
Max Temperature 84 °F 91 °F - ()
Min Temperature 75 °F 71 °F - ()
Cooling Degree Days 14    
Growing Degree Days 30 (Base 50)    
Moisture  
Dew Point 53 °F    
Average Humidity 43    
Maximum Humidity 78    
Minimum Humidity 12    
Precipitation  
Precipitation 0.00 in 0.01 in - ()
Sea Level Pressure  
Sea Level Pressure 29.62 in    
Wind  
Wind Speed 12 mph ()    
Max Wind Speed 22 mph    
Max Gust Speed 34 mph    
Visibility 3.4 miles    
Events      
T = Trace of Precipitation, MM = Missing Value Source: Averaged Metar Reports

Daily Weather History Graph

Daily Weather History Graph

Search for Another Location

Airport or City:

Trip Planner

Search our weather history database for the weather conditions in past years. The results will help you decide how hot, cold, wet, or windy it might be!

Date:

Astronomy

Apr. 06, 2013 Rise Set
Actual Time 5:20 AM +03 5:52 PM +03
Civil Twilight 4:57 AM +03 6:15 PM +03
Nautical Twilight 4:30 AM +03 6:42 PM +03
Astronomical Twilight 4:02 AM +03 7:10 PM +03
Moon 2:25 AM +03 (4/6) 2:17 PM +03 (4/6)
Length of Visible Light 13h 18m
Length of Day
12h 32m
Waning Crescent, 17% of the Moon is Illuminated
Apr 6
Waning Crescent
Apr 10
New
Apr 18
First Quarter
Apr 25
Full
May 2
Last Quarter

Hourly Weather History & Observations

Time (+03) Temp. Heat Index Dew Point Humidity Pressure Visibility Wind Dir Wind Speed Gust Speed Precip Events Conditions
12:00 AM 80.6 °F 83.9 °F 69.8 °F 70% 29.59 in 4.3 mi ESE 16.1 mph - N/A   Mostly Cloudy
1:30 AM 78.8 °F - 71.6 °F 78% 29.56 in 4.3 mi ESE 10.4 mph - N/A   Unknown
2:00 AM 78.8 °F - 69.8 °F 74% 29.56 in 4.3 mi ESE 10.4 mph - N/A   Unknown
2:30 AM 78.8 °F - 68.0 °F 69% 29.53 in 4.3 mi ESE 11.5 mph - N/A   Unknown
3:00 AM 80 °F - 67 °F 57% 29.56 in 4 mi SSE 8.1 mph - -   Haze
3:00 AM 80.6 °F 83.2 °F 68.0 °F 65% 29.53 in 4.3 mi SSE 8.1 mph 21.9 mph N/A   Unknown
3:30 AM 80.6 °F 83.2 °F 68.0 °F 65% 29.56 in 4.3 mi SSW 8.1 mph - N/A   Unknown
4:00 AM 80.6 °F 83.2 °F 68.0 °F 65% 29.56 in 4.3 mi NW 6.9 mph - N/A   Unknown
5:00 AM 78.8 °F - 68.0 °F 69% 29.59 in 3.7 mi NW 9.2 mph - N/A   Unknown
6:00 AM 77.0 °F - 66.2 °F 69% 29.59 in 2.5 mi WNW 4.6 mph - N/A   Haze
7:00 AM 78.8 °F - 68.0 °F 69% 29.62 in 2.5 mi WNW 9.2 mph - N/A   Unknown
8:00 AM 77.0 °F - 66.2 °F 69% 29.62 in 0.9 mi NW 15.0 mph - N/A   Unknown
9:00 AM 80 °F - 64 °F 49% 29.65 in 1 mi NW 13.8 mph - -   Widespread Dust
9:00 AM 80.6 °F 82.3 °F 64.4 °F 58% 29.65 in 1.2 mi NW 13.8 mph - N/A   Unknown
9:30 AM 80.6 °F 81.5 °F 60.8 °F 51% 29.62 in 1.2 mi NW 19.6 mph 32.2 mph N/A   Widespread Dust
10:00 AM 80.6 °F 81.5 °F 60.8 °F 51% 29.65 in 1.2 mi NNW 17.3 mph - N/A   Widespread Dust
10:30 AM 82.4 °F 82.5 °F 59.0 °F 45% 29.65 in 1.2 mi NW 20.7 mph 33.4 mph N/A   Widespread Dust
11:00 AM 82.4 °F 82.0 °F 57.2 °F 42% 29.62 in 1.2 mi NW 18.4 mph - N/A   Widespread Dust
11:30 AM 82.4 °F 82.0 °F 57.2 °F 42% 29.62 in 1.6 mi NW 18.4 mph - N/A   Low Drifting Widespread Dust
12:00 PM 82.4 °F 81.4 °F 53.6 °F 37% 29.62 in 1.6 mi NW 19.6 mph 31.1 mph N/A   Low Drifting Widespread Dust
12:30 PM 84.2 °F - 48.2 °F 29% 29.62 in 1.6 mi NW 18.4 mph 31.1 mph N/A   Low Drifting Widespread Dust
1:00 PM 84.2 °F - 41.0 °F 22% 29.59 in 1.6 mi NW 20.7 mph 34.5 mph N/A   Low Drifting Widespread Dust
1:30 PM 84.2 °F - 39.2 °F 20% 29.59 in 1.6 mi NW 20.7 mph 29.9 mph N/A   Low Drifting Widespread Dust
2:00 PM 84.2 °F - 35.6 °F 18% 29.59 in 2.2 mi NW 21.9 mph 32.2 mph N/A   Low Drifting Widespread Dust
2:30 PM 84.2 °F - 39.2 °F 20% 29.59 in 3.1 mi NW 19.6 mph 31.1 mph N/A   Unknown
3:00 PM 83 °F - 39 °F 12% 29.60 in 3 mi NW 18.4 mph - -   Widespread Dust
3:00 PM 84.2 °F - 39.2 °F 20% 29.59 in 3.1 mi NW 18.4 mph 33.4 mph N/A   Unknown
3:30 PM 84.2 °F - 37.4 °F 19% 29.59 in 3.7 mi NW 13.8 mph - N/A   Unknown
4:00 PM 82.4 °F - 37.4 °F 20% 29.59 in 3.7 mi NW 17.3 mph - N/A   Unknown
4:30 PM 82.4 °F - 39.2 °F 21% 29.59 in 3.7 mi NW 15.0 mph - N/A   Unknown
5:00 PM 80.6 °F - 41.0 °F 24% 29.62 in 3.7 mi NW 12.7 mph - N/A   Unknown
5:30 PM 78.8 °F - 42.8 °F 28% 29.62 in 3.7 mi NNW 15.0 mph - N/A   Unknown
6:00 PM 78.8 °F - 42.8 °F 28% 29.62 in 3.7 mi NW 10.4 mph - N/A   Unknown
7:00 PM 77.0 °F - 39.2 °F 26% 29.65 in 5.0 mi NW 11.5 mph - N/A   Unknown
8:30 PM 75.2 °F - 44.6 °F 34% 29.68 in 5.6 mi NW 11.5 mph - N/A   Unknown
9:00 PM 76 °F - 45 °F 22% 29.71 in 6 mi NW 9.2 mph - -   Widespread Dust
9:00 PM 75.2 °F - 44.6 °F 34% 29.68 in 5.6 mi NW 9.2 mph - N/A   Unknown
9:30 PM 75.2 °F - 46.4 °F 36% 29.71 in 5.6 mi NW 9.2 mph - N/A   Unknown
10:00 PM 75.2 °F - 48.2 °F 38% 29.71 in 5.6 mi NW 6.9 mph - N/A   Unknown
10:30 PM 75.2 °F - 50.0 °F 41% 29.71 in 5.6 mi NW 6.9 mph - N/A   Unknown
11:00 PM 75.2 °F - 50.0 °F 41% 29.68 in 5.6 mi NW 5.8 mph - N/A   Unknown
11:30 PM 75.2 °F - 50.0 °F 41% 29.68 in 5.6 mi WNW 8.1 mph - N/A   Unknown